Content
SEND FEEDBACK

Daily
Averages
Monthly
Summary
United States of America

MOUNT PLEASANT, MICHIGAN


Home > North America > United States > Michigan
Elevation: 667 feet     Latitude: 43 32N     Longitude: 084 05W

WEATHER
 
SELECT A DAY
Number of Records: 200,644;   Date Range: 1/1/95 - 8/12/14
 
SHARE

PRINT THIS DATA

[ ← Previous Day ]
WEATHER ALMANAC - JANUARY 31, 2013
[ Next Day → ]
[ °C ]   °F
Weather ElementAverageHighLow
Temperature22.5 °F28.9 °F (12:53 am)17.6 °F (11:14 pm)
Dewpoint11.5 °F21 °F (12:53 am)6.1 °F (12:53 pm)
Humidity63 %73 % (11:14 pm)48 % (12:53 pm)
Barometer29.58 in29.88 in (11:53 pm)29.24 in (12:51 am)
Wind Speed20.3 mph29.9 mph (4:34 am)
Wind Gust40.3 mph (4:34 am)
Weather ElementAverage
Visibility9.5 mi
Wind DirectionWNW (276.8 °)

Weather ElementTotal
Precipitation---
Heating Degree Days41.8 (Base 65)
Averaged from 31 records on January 31, 2013
WEATHER CONDITIONS BREAKOUT
WIND DIRECTION BREAKOUT
WEATHER BY HOUR - JANUARY 31, 2013
[ °C ]   °F
Local TimeTemperatureDewpointHumidityBarometerVisibilityWind DirectionWind SpeedGust SpeedPrecipitationEventsConditions
12:51 AM28.4 °F19.4 °F69 %29.24 in10.0 miWest (270°)23.0 mph27.6 mph0.00 inSnowLight Snow
12:53 AM28.9 °F21.0 °F72 %29.26 in10.0 miWest (260°)26.5 mph33.4 mph0.00 inSnowLight Snow
1:08 AM28.4 °F19.4 °F69 %29.25 in9.0 miWest (270°)21.9 mph32.2 mph0.00 inOvercast
1:36 AM26.6 °F17.6 °F69 %29.27 in10.0 miWest (270°)25.3 mph35.7 mph0.00 inOvercast
1:53 AM27.0 °F17.1 °F66 %29.30 in10.0 miWest (270°)20.7 mph36.8 mph0.00 inOvercast
2:53 AM25.0 °F15.1 °F66 %29.34 in10.0 miWest (270°)26.5 mph35.7 mphOvercast
3:48 AM24.8 °F14.0 °F64 %29.35 in10.0 miWest (270°)19.6 mph38.0 mphOvercast
3:53 AM24.1 °F14.0 °F65 %29.38 in10.0 miWest (280°)23.0 mph33.4 mphOvercast
4:34 AM24.8 °F12.2 °F59 %29.37 in9.0 miWest (280°)29.9 mph40.3 mph0.00 inSnowLight Snow
4:53 AM23.0 °F12.9 °F65 %29.41 in7.0 miWest (270°)27.6 mph36.8 mph0.00 inSnowLight Snow
5:53 AM23.0 °F12.0 °F63 %29.45 in10.0 miWest (280°)20.7 mph36.8 mph0.00 inOvercast
6:53 AM21.9 °F14.0 °F72 %29.48 in3.0 miWest (270°)26.5 mph33.4 mph0.00 inSnowLight Snow
7:53 AM21.9 °F10.0 °F60 %29.52 in9.0 miWest (270°)25.3 mph33.4 mph0.00 inOvercast
8:53 AM21.9 °F9.0 °F58 %29.55 in10.0 miWest (270°)23.0 mph32.2 mphOvercast
9:53 AM21.9 °F10.0 °F60 %29.59 in10.0 miWNW (290°)20.7 mph32.2 mphOvercast
10:53 AM23.0 °F8.1 °F53 %29.62 in10.0 miWest (280°)26.5 mph32.2 mphOvercast
11:53 AM24.1 °F8.1 °F51 %29.64 in10.0 miWest (270°)21.9 mph29.9 mphOvercast
12:53 PM23.0 °F6.1 °F48 %29.65 in10.0 miWest (280°)18.4 mph28.8 mph0.00 inOvercast
1:53 PM23.0 °F6.1 °F48 %29.66 in10.0 miWNW (290°)19.6 mph29.9 mphOvercast
2:53 PM23.0 °F7.0 °F50 %29.68 in10.0 miWest (260°)18.4 mph26.5 mphOvercast
3:53 PM21.9 °F8.1 °F55 %29.72 in10.0 miWNW (300°)16.1 mph25.3 mphOvercast
4:53 PM21.0 °F8.1 °F57 %29.74 in7.0 miWNW (290°)13.8 mph0.00 inSnowLight Snow
5:53 PM19.9 °F9.0 °F62 %29.77 in10.0 miNW (310°)13.8 mph20.7 mph0.00 inOvercast
6:53 PM19.9 °F9.0 °F62 %29.80 in10.0 miWest (280°)15.0 mph24.2 mph0.00 inOvercast
7:53 PM19.0 °F9.0 °F65 %29.82 in10.0 miWest (270°)16.1 mph26.5 mphPartly Cloudy
8:53 PM19.0 °F10.0 °F68 %29.84 in10.0 miWest (270°)16.1 mphMostly Cloudy
9:53 PM18.0 °F10.0 °F71 %29.86 in10.0 miWest (270°)15.0 mphOvercast
10:53 PM19.0 °F10.0 °F68 %29.86 in10.0 miWest (280°)16.1 mphOvercast
11:14 PM17.6 °F10.4 °F73 %29.84 in10.0 miWest (280°)15.0 mphOvercast
11:40 PM17.6 °F10.4 °F73 %29.84 in10.0 miWest (280°)13.8 mphOvercast
11:53 PM18.0 °F10.0 °F71 %29.88 in10.0 miWest (280°)13.8 mphOvercast
Hourly data recorded from KMBS, located miles away from Mount Pleasant, Michigan







STORIES FROM OUR PARTNERS